Pittsfield, MA

11:54 AM EST on November 21, 2019 (GMT -0500)
Pittsfield Municipal

Weather History for KPSF - July, 2019

Change the Weather History Date:

Thursday, July 11, 2019

  Actual Average Record
Temperature  
Mean Temperature 72 °F 68 °F  
Max Temperature 83 °F 79 °F 98 °F (1936)
Min Temperature 60 °F 56 °F 43 °F (1945)
Degree Days  
Heating Degree Days 0 1  
Month to date heating degree days 0 11  
Since 1 June heating degree days 67 112  
Since 1 July heating degree days 0 11  
Cooling Degree Days 7 4  
Month to date cooling degree days 67 37  
Year to date cooling degree days 124 106  
Since 1 June cooling degree days 118 93  
Growing Degree Days 21 (Base 50)    
Moisture  
Dew Point 63 °F    
Average Humidity 74    
Maximum Humidity 93    
Minimum Humidity 55    
Precipitation  
Precipitation 0.01 in 0.13 in 1.07 in (1958)
Month to date precipitation 0.35 1.29  
Year to date precipitation 22.94 22.73  
Sea Level Pressure  
Sea Level Pressure 29.84 in    
Wind  
Wind Speed 6 mph (South)    
Max Wind Speed 16 mph    
Max Gust Speed 23 mph    
Visibility 10 miles    
Events Rain    
T = Trace of Precipitation, MM = Missing Value Source: NWS Daily Summary

Daily Weather History Graph

Daily Weather History Graph

Search for Another Location

Airport or City:

Astronomy

Jul. 11, 2019 Rise Set
Actual Time 5:26 AM EDT 8:30 PM EDT
Civil Twilight 4:52 AM EDT 9:04 PM EDT
Nautical Twilight 4:08 AM EDT 9:48 PM EDT
Astronomical Twilight 3:16 AM EDT 10:39 PM EDT
Moon 3:37 PM EDT (7/11) 1:39 AM EDT (7/11)
Length of Visible Light 16h 12m
Length of Day
15h 04m
Waxing Gibbous, 74% of the Moon is Illuminated
Jul 11
Waxing Gibbous
Jul 16
Full
Jul 24
Last Quarter
Jul 31
New
Aug 7
First Quarter

Hourly Weather History & Observations

Time (EDT) Temp. Heat Index Dew Point Humidity Pressure Visibility Wind Dir Wind Speed Gust Speed Precip Events Conditions
12:54 AM 64.0 °F - 61.0 °F 90% 29.92 in 10.0 mi Calm Calm - N/A   Clear
1:54 AM 63.0 °F - 61.0 °F 93% 29.91 in 8.0 mi Calm Calm - N/A   Clear
2:54 AM 63.0 °F - 61.0 °F 93% 29.91 in 10.0 mi Calm Calm - N/A   Clear
3:54 AM 62.1 °F - 59.0 °F 90% 29.91 in 10.0 mi Calm Calm - N/A   Clear
4:54 AM 60.1 °F - 57.9 °F 93% 29.91 in 7.0 mi Calm Calm - N/A   Partly Cloudy
5:54 AM 62.1 °F - 59.0 °F 90% 29.91 in 8.0 mi Calm Calm - N/A   Mostly Cloudy
6:54 AM 64.0 °F - 61.0 °F 90% 29.91 in 8.0 mi Calm Calm - N/A   Partly Cloudy
7:54 AM 68.0 °F - 63.0 °F 84% 29.91 in 9.0 mi Calm Calm - N/A   Mostly Cloudy
8:54 AM 72.0 °F - 64.0 °F 76% 29.90 in 10.0 mi Calm Calm - N/A   Partly Cloudy
9:54 AM 79.0 °F - 68.0 °F 69% 29.88 in 10.0 mi South 9.2 mph - N/A   Clear
10:54 AM 79.0 °F - 66.0 °F 64% 29.87 in 10.0 mi SSW 8.1 mph - N/A   Scattered Clouds
11:54 AM 80.1 °F 82.3 °F 66.9 °F 64% 29.86 in 10.0 mi South 8.1 mph - N/A   Overcast
12:54 PM 78.1 °F - 64.0 °F 62% 29.86 in 10.0 mi South 8.1 mph 17.3 mph N/A   Overcast
1:54 PM 78.1 °F - 64.9 °F 64% 29.84 in 10.0 mi South 5.8 mph - N/A   Overcast
2:54 PM 82.0 °F 84.1 °F 66.0 °F 58% 29.80 in 10.0 mi SSE 6.9 mph - N/A   Overcast
3:54 PM 82.9 °F 84.6 °F 64.9 °F 54% 29.78 in 10.0 mi South 12.7 mph 19.6 mph N/A   Scattered Clouds
4:54 PM 80.1 °F 81.7 °F 64.0 °F 58% 29.77 in 10.0 mi SSW 8.1 mph 17.3 mph N/A   Mostly Cloudy
5:54 PM 78.1 °F - 64.0 °F 62% 29.77 in 10.0 mi South 11.5 mph - N/A   Overcast
6:54 PM 77.0 °F - 61.0 °F 58% 29.78 in 10.0 mi Variable 6.9 mph 19.6 mph N/A   Mostly Cloudy
7:54 PM 73.9 °F - 60.1 °F 62% 29.77 in 10.0 mi South 10.4 mph 21.9 mph N/A   Overcast
8:54 PM 73.0 °F - 62.1 °F 68% 29.75 in 10.0 mi South 9.2 mph - N/A   Overcast
9:54 PM 72.0 °F - 63.0 °F 73% 29.76 in 10.0 mi South 10.4 mph - N/A   Mostly Cloudy
10:54 PM 70.0 °F - 66.0 °F 87% 29.75 in 9.0 mi SSE 6.9 mph - 0.00 in Rain Light Rain
11:07 PM 70.0 °F - 66.0 °F 87% 29.83 in 10.0 mi Variable 3.5 mph - 0.01 in Rain Light Rain
11:54 PM 70.0 °F - 66.0 °F 87% 29.73 in 10.0 mi SSE 8.1 mph - 0.01 in   Overcast